Galesburg, IL

12:04 AM CST on February 21, 2018 (GMT -0600)
Galesburg Municipal

Weather History for KGBG - November, 2014

Change the Weather History Date:

Sunday, November 2, 2014

  Actual Average Record
Temperature  
Mean Temperature 38 °F -  
Max Temperature 49 °F 53 °F 76 °F (1961)
Min Temperature 28 °F 38 °F 10 °F (1991)
Degree Days  
Heating Degree Days 26    
Moisture  
Dew Point 26 °F    
Average Humidity 61    
Maximum Humidity 84    
Minimum Humidity 35    
Precipitation  
Precipitation 0.00 in - - ()
Sea Level Pressure  
Sea Level Pressure 30.27 in    
Wind  
Wind Speed 8 mph (SSE)    
Max Wind Speed 17 mph    
Max Gust Speed 25 mph    
Visibility 10 miles    
Events      
Averages and records for this station are not official NWS values.
T = Trace of Precipitation, MM = Missing Value Source: NWS Daily Summary

Daily Weather History Graph

Daily Weather History Graph

Search for Another Location

Airport or City:

Trip Planner

Search our weather history database for the weather conditions in past years. The results will help you decide how hot, cold, wet, or windy it might be!

Date:

Astronomy

Nov. 02, 2014 Rise Set
Actual Time 6:33 AM CST 4:56 PM CST
Civil Twilight 6:05 AM CST 5:24 PM CST
Nautical Twilight 5:32 AM CST 5:57 PM CST
Astronomical Twilight 5:00 AM CST 6:29 PM CST
Moon 2:30 PM CST (11/2) 1:34 AM CST (11/2)
Length of Visible Light 11h 19m
Length of Day
10h 22m
Waxing Gibbous, 79% of the Moon is Illuminated
Nov 2
Waxing Gibbous
Nov 6
Full
Nov 14
Last Quarter
Nov 22
New
Nov 29
First Quarter

Hourly Weather History & Observations

Time (CST) Temp. Windchill Dew Point Humidity Pressure Visibility Wind Dir Wind Speed Gust Speed Precip Events Conditions
12:15 AM 31.6 °F 28.3 °F 25.3 °F 78% 30.37 in 10.0 mi SSE 3.5 mph - N/A   Clear
12:35 AM 30.2 °F 26.7 °F 25.0 °F 81% 30.37 in 10.0 mi SE 3.5 mph - N/A   Clear
12:55 AM 30.4 °F 25.6 °F 25.0 °F 80% 30.37 in 10.0 mi SSE 4.6 mph - N/A   Clear
1:15 AM 30.9 °F 27.5 °F 24.8 °F 78% 30.37 in 10.0 mi SE 3.5 mph - N/A   Clear
1:35 AM 28.2 °F - 23.7 °F 83% 30.37 in 10.0 mi Calm Calm - N/A   Clear
1:55 AM 28.8 °F 25.0 °F 24.3 °F 83% 30.36 in 10.0 mi SE 3.5 mph - N/A   Clear
1:15 AM 31.1 °F 26.4 °F 25.0 °F 78% 30.36 in 10.0 mi SE 4.6 mph - N/A   Clear
1:35 AM 31.8 °F 27.3 °F 25.2 °F 76% 30.36 in 10.0 mi SSE 4.6 mph - N/A   Clear
1:55 AM 30.6 °F 25.8 °F 25.0 °F 80% 30.37 in 10.0 mi SE 4.6 mph - N/A   Clear
2:15 AM 30.7 °F 26.0 °F 25.7 °F 82% 30.37 in 10.0 mi SE 4.6 mph - N/A   Clear
2:35 AM 31.5 °F 28.1 °F 26.6 °F 82% 30.37 in 10.0 mi SE 3.5 mph - N/A   Clear
2:55 AM 31.3 °F 26.6 °F 26.6 °F 83% 30.37 in 10.0 mi SE 4.6 mph - N/A   Clear
3:15 AM 32.0 °F 27.5 °F 27.3 °F 83% 30.38 in 10.0 mi SE 4.6 mph - N/A   Mostly Cloudy
3:35 AM 32.9 °F 26.7 °F 28.0 °F 82% 30.36 in 10.0 mi SE 6.9 mph - N/A   Overcast
3:55 AM 33.3 °F 26.4 °F 28.2 °F 82% 30.37 in 10.0 mi SSE 8.1 mph - N/A   Overcast
4:15 AM 33.3 °F 26.4 °F 28.4 °F 82% 30.37 in 10.0 mi SSE 8.1 mph - N/A   Overcast
4:35 AM 33.1 °F 26.1 °F 28.4 °F 83% 30.37 in 10.0 mi SE 8.1 mph - N/A   Overcast
4:55 AM 33.1 °F 26.1 °F 28.4 °F 83% 30.36 in 10.0 mi SE 8.1 mph - N/A   Overcast
5:15 AM 33.3 °F 27.1 °F 28.8 °F 84% 30.37 in 10.0 mi SSE 6.9 mph - N/A   Overcast
5:35 AM 33.6 °F 26.8 °F 29.1 °F 84% 30.37 in 10.0 mi SSE 8.1 mph - N/A   Overcast
5:55 AM 33.8 °F 27.7 °F 29.1 °F 83% 30.37 in 10.0 mi SE 6.9 mph - N/A   Overcast
6:15 AM 33.8 °F 28.6 °F 28.4 °F 81% 30.37 in 10.0 mi SSE 5.8 mph - N/A   Overcast
6:35 AM 34.0 °F 28.8 °F 29.1 °F 82% 30.36 in 10.0 mi SE 5.8 mph - N/A   Overcast
6:55 AM 34.2 °F 29.0 °F 29.3 °F 82% 30.37 in 10.0 mi SSE 5.8 mph - N/A   Overcast
7:15 AM 34.7 °F 28.1 °F 29.1 °F 80% 30.37 in 10.0 mi SE 8.1 mph - N/A   Overcast
7:35 AM 35.1 °F 29.3 °F 29.1 °F 79% 30.37 in 10.0 mi SSE 6.9 mph - N/A   Overcast
7:55 AM 35.6 °F 28.6 °F 29.3 °F 78% 30.37 in 10.0 mi SSE 9.2 mph - N/A   Overcast
8:15 AM 36.7 °F 29.4 °F 29.1 °F 74% 30.36 in 10.0 mi SSE 10.4 mph 16.1 mph N/A   Mostly Cloudy
8:35 AM 38.3 °F 31.9 °F 29.5 °F 71% 30.36 in 10.0 mi SSE 9.2 mph - N/A   Scattered Clouds
8:55 AM 39.4 °F 32.3 °F 29.5 °F 68% 30.36 in 10.0 mi SSE 11.5 mph 17.3 mph N/A   Mostly Cloudy
9:15 AM 41.2 °F 33.4 °F 29.3 °F 63% 30.35 in 10.0 mi SSE 15.0 mph 20.7 mph N/A   Mostly Cloudy
9:35 AM 41.2 °F 33.4 °F 28.8 °F 61% 30.34 in 10.0 mi SSE 15.0 mph 21.9 mph N/A   Overcast
9:55 AM 42.4 °F 35.0 °F 28.9 °F 59% 30.34 in 10.0 mi SSE 15.0 mph 21.9 mph N/A   Mostly Cloudy
10:15 AM 44.1 °F 37.1 °F 29.1 °F 56% 30.33 in 10.0 mi SSE 15.0 mph 20.7 mph N/A   Mostly Cloudy
10:35 AM 44.6 °F 38.8 °F 28.4 °F 53% 30.33 in 10.0 mi SSE 11.5 mph 21.9 mph N/A   Mostly Cloudy
10:55 AM 45.9 °F 39.7 °F 27.1 °F 48% 30.31 in 10.0 mi SSE 13.8 mph 24.2 mph N/A   Overcast
11:15 AM 47.3 °F - 26.6 °F 45% 30.30 in 10.0 mi South 16.1 mph 24.2 mph N/A   Overcast
11:35 AM 46.8 °F - 25.9 °F 44% 30.28 in 10.0 mi South 13.8 mph 24.2 mph N/A   Overcast
11:55 AM 48.2 °F - 24.8 °F 40% 30.29 in 10.0 mi South 13.8 mph 21.9 mph N/A   Overcast
12:15 PM 47.7 °F - 25.5 °F 42% 30.27 in 10.0 mi SSE 13.8 mph 19.6 mph N/A   Overcast
12:35 PM 48.2 °F - 25.0 °F 40% 30.26 in 10.0 mi SSE 13.8 mph 19.6 mph N/A   Overcast
12:55 PM 48.6 °F - 24.4 °F 39% 30.25 in 10.0 mi SSE 13.8 mph 20.7 mph N/A   Overcast
1:15 PM 48.6 °F - 24.1 °F 38% 30.23 in 10.0 mi SSE 13.8 mph 20.7 mph N/A   Overcast
1:35 PM 48.7 °F - 24.1 °F 38% 30.22 in 10.0 mi SSE 13.8 mph 21.9 mph N/A   Overcast
1:55 PM 48.6 °F - 23.5 °F 37% 30.22 in 10.0 mi SSE 17.3 mph 21.9 mph N/A   Overcast
2:15 PM 48.7 °F - 23.7 °F 38% 30.21 in 10.0 mi SSE 12.7 mph 18.4 mph N/A   Overcast
2:35 PM 48.9 °F - 23.0 °F 36% 30.20 in 10.0 mi SSE 16.1 mph 21.9 mph N/A   Overcast
2:55 PM 49.1 °F - 22.6 °F 35% 30.19 in 10.0 mi SSE 16.1 mph 25.3 mph N/A   Overcast
3:15 PM 48.4 °F - 22.3 °F 36% 30.19 in 10.0 mi SSE 15.0 mph 24.2 mph N/A   Overcast
3:35 PM 47.8 °F - 22.5 °F 37% 30.19 in 10.0 mi SSE 13.8 mph 19.6 mph N/A   Overcast
3:55 PM 47.7 °F - 22.8 °F 38% 30.18 in 10.0 mi SSE 13.8 mph 19.6 mph N/A   Overcast
4:15 PM 47.3 °F - 23.7 °F 40% 30.16 in 10.0 mi SE 11.5 mph 17.3 mph N/A   Overcast
4:35 PM 47.3 °F - 23.9 °F 40% 30.16 in 10.0 mi SE 13.8 mph 23.0 mph N/A   Overcast
4:55 PM 46.6 °F - 24.4 °F 42% 30.15 in 10.0 mi SSE 12.7 mph 20.7 mph N/A   Overcast
5:15 PM 46.2 °F 41.7 °F 25.3 °F 44% 30.14 in 10.0 mi SE 9.2 mph 19.6 mph N/A   Overcast
5:35 PM 45.5 °F 39.6 °F 26.6 °F 48% 30.14 in 10.0 mi SSE 12.7 mph 18.4 mph N/A   Overcast
5:55 PM 45.1 °F 38.8 °F 26.8 °F 49% 30.14 in 10.0 mi SSE 13.8 mph 23.0 mph N/A   Mostly Cloudy
6:15 PM 44.6 °F 39.2 °F 27.0 °F 50% 30.14 in 10.0 mi SSE 10.4 mph 19.6 mph N/A   Scattered Clouds
6:35 PM 44.1 °F 38.1 °F 27.1 °F 51% 30.13 in 10.0 mi SE 11.5 mph 18.4 mph N/A   Clear
6:55 PM 43.9 °F 37.5 °F 27.1 °F 52% 30.13 in 10.0 mi SSE 12.7 mph 19.6 mph N/A   Clear
7:15 PM 43.7 °F 36.9 °F 26.6 °F 51% 30.13 in 10.0 mi SSE 13.8 mph 20.7 mph N/A   Clear
7:35 PM 43.7 °F 36.9 °F 26.1 °F 50% 30.13 in 10.0 mi SSE 13.8 mph 19.6 mph N/A   Clear
7:55 PM 43.3 °F 37.7 °F 25.5 °F 49% 30.13 in 10.0 mi SSE 10.4 mph 16.1 mph N/A   Clear
8:15 PM 42.8 °F 37.0 °F 25.5 °F 51% 30.13 in 10.0 mi SSE 10.4 mph - N/A   Clear
8:35 PM 42.8 °F 36.6 °F 25.3 °F 50% 30.14 in 10.0 mi South 11.5 mph 17.3 mph N/A   Clear
8:55 PM 43.3 °F 37.2 °F 25.2 °F 49% 30.14 in 10.0 mi South 11.5 mph 17.3 mph N/A   Clear
9:15 PM 43.2 °F 36.6 °F 25.5 °F 50% 30.14 in 10.0 mi South 12.7 mph - N/A   Clear
9:35 PM 43.2 °F 37.0 °F 25.5 °F 50% 30.14 in 10.0 mi SSE 11.5 mph 17.3 mph N/A   Clear
9:55 PM 43.0 °F 37.7 °F 25.5 °F 50% 30.13 in 10.0 mi SSE 9.2 mph 16.1 mph N/A   Clear
10:15 PM 43.2 °F 37.4 °F 25.7 °F 50% 30.13 in 10.0 mi SSE 10.4 mph - N/A   Clear
10:35 PM 42.8 °F 37.0 °F 26.1 °F 52% 30.13 in 10.0 mi SSE 10.4 mph - N/A   Clear
10:55 PM 42.4 °F 37.0 °F 26.4 °F 53% 30.13 in 10.0 mi South 9.2 mph - N/A   Clear